Starlink 32840

operational
NORAD ID: 63363 Int'l Des: 2025-063 Owner: SPXS Country: US Constellation: starlink
LEOCIRCULAR

Starlink 32840について

説明を読み込み中...

リアルタイム位置

3D地球を読み込み中...

次回通過

高度履歴

Altitude vs Time

uPlot chart will show altitude changes over time

軌道要素

1 63363U 25063A 25258.07364017 .00018903 00000-0 48124-3 0 9990
2 63363 53.1576 149.4927 0000975 107.1766 252.9346 15.39628945 27838
Epoch: Sep 15, 2025 • Age: 24 hours

現在のステータス

高度 447.0 km
速度 7.65 km/s
衛星直下点 18.53°N, 72.17°W
打ち上げ日 Mar 26, 2025
運用期間 0.4 years
タイプ internet

技術仕様

分類 Payload
質量 730.00 kg
乾燥質量 700.00 kg
総質量 730.00 kg
長さ 0.30 m
直径 4.10 m
スパン 29.00 m
形状 Box + pan
製造者 SPXS
バスタイプ Starlink V2M
フェーズステータス In Orbit
所有者/国 SPXS/US

大規模コンステレーション

Loading constellations...